RYR1VB LICJ-LIRF

Flight info

Callsign RYR1VB
Flight time N/A
Altitude 30000
Route LURON DCT DORAS DCT BEROL DCT PNZ DCT NEKPI DCT LAT
Aircraft B738/M-SDE3FGILRWY/SB1

Departure

Time 2026-05-05 13:05
Airport Falcone–Borsellino Airport (LICJ)

Arrival

Time N/A
Airport Rome–Fiumicino Leonardo da Vinci International Airport (LIRF)
Time Latitude Longitude Altitude Speed Heading
2026-05-05 12:53 38.18548 13.10885 52 ft 0 kts 247°
2026-05-05 12:57 38.18547 13.10881 52 ft 2 kts 247°
2026-05-05 12:57 38.18532 13.10837 52 ft 9 kts 247°
2026-05-05 12:58 38.18511 13.10744 52 ft 12 kts 261°
2026-05-05 12:58 38.18482 13.10649 51 ft 11 kts 246°
2026-05-05 12:58 38.18452 13.10558 52 ft 11 kts 247°
2026-05-05 12:58 38.18393 13.10503 50 ft 11 kts 199°
2026-05-05 12:59 38.18328 13.10461 50 ft 10 kts 229°
2026-05-05 12:59 38.18296 13.10380 51 ft 10 kts 236°
2026-05-05 12:59 38.18233 13.10374 52 ft 10 kts 174°
2026-05-05 13:00 38.18171 13.10235 50 ft 9 kts 246°
2026-05-05 13:00 38.18144 13.10157 50 ft 10 kts 246°
2026-05-05 13:01 38.18040 13.09849 50 ft 15 kts 247°
2026-05-05 13:01 38.17999 13.09726 50 ft 15 kts 246°
2026-05-05 13:01 38.17957 13.09605 52 ft 15 kts 246°
2026-05-05 13:01 38.17918 13.09488 52 ft 14 kts 247°
2026-05-05 13:02 38.17880 13.09375 51 ft 15 kts 247°
2026-05-05 13:02 38.17853 13.09293 51 ft 16 kts 248°
2026-05-05 13:02 38.17808 13.09156 51 ft 18 kts 246°
2026-05-05 13:02 38.17758 13.09008 52 ft 18 kts 246°
2026-05-05 13:03 38.17680 13.08894 52 ft 17 kts 217°
2026-05-05 13:03 38.17587 13.08805 51 ft 16 kts 217°
2026-05-05 13:03 38.17498 13.08742 52 ft 12 kts 175°
2026-05-05 13:03 38.17480 13.08798 52 ft 7 kts 69°
2026-05-05 13:04 38.17494 13.08840 51 ft 14 kts 68°
2026-05-05 13:04 38.17623 13.09220 50 ft 79 kts 67°
2026-05-05 13:04 38.17908 13.10075 50 ft 131 kts 66°
2026-05-05 13:04 38.18307 13.11267 301 ft 149 kts 67°
2026-05-05 13:05 38.18654 13.12356 947 ft 142 kts 65°